When you browse on this site, cookies collect data to enhance your experience and personalize the content and advertising you see.
Visit our Privacy Policy to learn more. By continuing to use the site, you agree to this use of cookies and data.
  • In Romania
  • List of Countries
  • For 7 days
  • Water Temperature
  • Weather Map
  • Weather Widgets
  • user-avatar
    Login

    Hourly Weather Al Hilla

    Today, 25 August, Sunday

    Time Temperature Precipitation Wind Pressure Humidity
    00:00 +38°C° 0 mm 4 mps 749 mmHg 15%
    01:00 +38°C° 0 mm 4 mps 749 mmHg 15%
    02:00 +38°C° 0 mm 3 mps 749 mmHg 16%
    03:00 +37°C° 0 mm 3 mps 748 mmHg 17%
    04:00 +37°C° 0 mm 3 mps 749 mmHg 18%
    05:00 +36°C° 0 mm 3 mps 749 mmHg 19%
    06:00 +35°C° 0 mm 3 mps 749 mmHg 20%
    07:00 +38°C° 0 mm 2 mps 749 mmHg 17%
    08:00 +41°C° 0 mm 2 mps 749 mmHg 15%
    09:00 +45°C° 0 mm 2 mps 750 mmHg 12%
    10:00 +47°C° 0 mm 2 mps 749 mmHg 11%
    11:00 +50°C° 0 mm 3 mps 749 mmHg 9%
    12:00 +52°C° 0 mm 3 mps 749 mmHg 8%
    13:00 +52°C° 0 mm 4 mps 748 mmHg 7%
    14:00 +53°C° 0 mm 4 mps 748 mmHg 7%
    15:00 +54°C° 0 mm 5 mps 747 mmHg 7%
    16:00 +53°C° 0 mm 5 mps 747 mmHg 7%
    17:00 +51°C° 0 mm 4 mps 747 mmHg 8%
    18:00 +50°C° 0 mm 4 mps 746 mmHg 8%
    19:00 +47°C° 0 mm 4 mps 747 mmHg 10%
    20:00 +44°C° 0 mm 3 mps 747 mmHg 11%
    21:00 +40°C° 0 mm 2 mps 747 mmHg 12%
    22:00 +40°C° 0 mm 3 mps 747 mmHg 12%
    23:00 +40°C° 0 mm 3 mps 747 mmHg 12%

    Tomorrow, 26 August, Monday

    Time Temperature Precipitation Wind Pressure Humidity
    00:00 +41°C° 0 mm 4 mps 747 mmHg 12%
    01:00 +40°C° 0 mm 4 mps 747 mmHg 13%
    02:00 +40°C° 0 mm 4 mps 747 mmHg 13%
    03:00 +40°C° 0 mm 5 mps 747 mmHg 13%
    04:00 +38°C° 0 mm 4 mps 747 mmHg 14%
    05:00 +37°C° 0 mm 4 mps 748 mmHg 15%
    06:00 +36°C° 0 mm 4 mps 748 mmHg 16%
    07:00 +40°C° 0 mm 4 mps 748 mmHg 13%
    08:00 +44°C° 0 mm 4 mps 749 mmHg 11%
    09:00 +48°C° 0 mm 4 mps 749 mmHg 9%
    10:00 +50°C° 0 mm 5 mps 749 mmHg 8%
    11:00 +53°C° 0 mm 5 mps 749 mmHg 7%
    12:00 +55°C° 0 mm 5 mps 748 mmHg 6%
    13:00 +55°C° 0 mm 5 mps 748 mmHg 6%
    14:00 +55°C° 0 mm 6 mps 747 mmHg 6%
    15:00 +56°C° 0 mm 7 mps 747 mmHg 6%
    16:00 +54°C° 0 mm 6 mps 747 mmHg 7%
    17:00 +53°C° 0 mm 6 mps 747 mmHg 7%
    18:00 +51°C° 0 mm 6 mps 747 mmHg 8%
    19:00 +49°C° 0 mm 6 mps 747 mmHg 9%
    20:00 +47°C° 0 mm 5 mps 748 mmHg 10%
    21:00 +45°C° 0 mm 5 mps 748 mmHg 11%
    22:00 +43°C° 0 mm 5 mps 748 mmHg 12%
    23:00 +42°C° 0 mm 5 mps 748 mmHg 12%

    Day after tomorrow, 27 August, Tuesday

    Time Temperature Precipitation Wind Pressure Humidity
    00:00 +42°C° 0 mm 5 mps 748 mmHg 13%
    01:00 +41°C° 0 mm 5 mps 748 mmHg 14%
    02:00 +40°C° 0 mm 5 mps 748 mmHg 15%
    03:00 +40°C° 0 mm 5 mps 748 mmHg 15%
    04:00 +39°C° 0 mm 5 mps 748 mmHg 16%
    05:00 +38°C° 0 mm 4 mps 748 mmHg 16%
    06:00 +37°C° 0 mm 4 mps 748 mmHg 16%
    07:00 +41°C° 0 mm 4 mps 748 mmHg 14%
    08:00 +44°C° 0 mm 4 mps 749 mmHg 12%
    09:00 +48°C° 0 mm 4 mps 749 mmHg 10%
    10:00 +50°C° 0 mm 4 mps 749 mmHg 8%
    11:00 +52°C° 0 mm 4 mps 748 mmHg 7%
    12:00 +55°C° 0 mm 5 mps 748 mmHg 6%
    13:00 +55°C° 0 mm 5 mps 748 mmHg 6%
    14:00 +55°C° 0 mm 6 mps 747 mmHg 6%
    15:00 +56°C° 0 mm 7 mps 747 mmHg 6%
    16:00 +54°C° 0 mm 6 mps 747 mmHg 7%
    17:00 +53°C° 0 mm 6 mps 746 mmHg 7%
    18:00 +51°C° 0 mm 6 mps 746 mmHg 8%
    19:00 +48°C° 0 mm 5 mps 747 mmHg 9%
    20:00 +46°C° 0 mm 5 mps 747 mmHg 11%
    21:00 +43°C° 0 mm 4 mps 747 mmHg 12%
    22:00 +43°C° 0 mm 5 mps 747 mmHg 12%
    23:00 +42°C° 0 mm 5 mps 747 mmHg 13%

    28 August, Wednesday

    Time Temperature Precipitation Wind Pressure Humidity
    00:00 +42°C° 0 mm 5 mps 747 mmHg 13%
    01:00 +41°C° 0 mm 5 mps 747 mmHg 15%
    02:00 +40°C° 0 mm 6 mps 747 mmHg 16%
    03:00 +39°C° 0 mm 6 mps 747 mmHg 18%
    04:00 +39°C° 0 mm 6 mps 747 mmHg 18%
    05:00 +37°C° 0 mm 5 mps 748 mmHg 18%
    06:00 +37°C° 0 mm 5 mps 748 mmHg 18%
    07:00 +42°C° 0 mm 6 mps 748 mmHg 15%
    08:00 +46°C° 0 mm 6 mps 748 mmHg 12%
    09:00 +51°C° 0 mm 7 mps 748 mmHg 9%
    10:00 +52°C° 0 mm 6 mps 748 mmHg 8%
    11:00 +53°C° 0 mm 4 mps 748 mmHg 7%
    12:00 +54°C° 0 mm 3 mps 747 mmHg 6%
    13:00 +55°C° 0 mm 4 mps 747 mmHg 6%
    14:00 +55°C° 0 mm 5 mps 747 mmHg 6%
    15:00 +55°C° 0 mm 6 mps 746 mmHg 6%
    16:00 +54°C° 0 mm 6 mps 746 mmHg 6%
    17:00 +52°C° 0 mm 5 mps 746 mmHg 7%
    18:00 +50°C° 0 mm 5 mps 746 mmHg 8%
    19:00 +48°C° 0 mm 5 mps 746 mmHg 9%
    20:00 +45°C° 0 mm 4 mps 747 mmHg 10%
    21:00 +43°C° 0 mm 4 mps 747 mmHg 12%
    22:00 +42°C° 0 mm 4 mps 747 mmHg 12%
    23:00 +42°C° 0 mm 4 mps 747 mmHg 13%

    29 August, Thursday

    Time Temperature Precipitation Wind Pressure Humidity
    00:00 +41°C° 0 mm 4 mps 747 mmHg 13%
    01:00 +40°C° 0 mm 4 mps 747 mmHg 13%
    02:00 +40°C° 0 mm 4 mps 747 mmHg 13%
    03:00 +38°C° 0 mm 4 mps 747 mmHg 14%
    04:00 +38°C° 0 mm 4 mps 748 mmHg 14%
    05:00 +37°C° 0 mm 4 mps 748 mmHg 15%
    06:00 +37°C° 0 mm 3 mps 748 mmHg 15%
    07:00 +40°C° 0 mm 3 mps 748 mmHg 13%
    08:00 +44°C° 0 mm 3 mps 748 mmHg 11%
    09:00 +49°C° 0 mm 4 mps 748 mmHg 8%
    10:00 +51°C° 0 mm 3 mps 748 mmHg 7%
    11:00 +52°C° 0 mm 3 mps 748 mmHg 6%
    12:00 +53°C° 0 mm 2 mps 747 mmHg 6%
    13:00 +54°C° 0 mm 3 mps 747 mmHg 5%
    14:00 +55°C° 0 mm 3 mps 747 mmHg 5%
    15:00 +56°C° 0 mm 4 mps 746 mmHg 5%
    16:00 +55°C° 0 mm 4 mps 746 mmHg 6%
    17:00 +52°C° 0 mm 4 mps 746 mmHg 6%
    18:00 +51°C° 0 mm 4 mps 746 mmHg 7%
    19:00 +49°C° 0 mm 4 mps 746 mmHg 8%
    20:00 +47°C° 0 mm 4 mps 746 mmHg 9%
    21:00 +44°C° 0 mm 4 mps 746 mmHg 10%
    22:00 +43°C° 0 mm 4 mps 746 mmHg 10%
    23:00 +43°C° 0 mm 4 mps 746 mmHg 10%

    30 August, Friday

    Time Temperature Precipitation Wind Pressure Humidity
    00:00 +42°C° 0 mm 4 mps 746 mmHg 11%
    01:00 +41°C° 0 mm 4 mps 746 mmHg 11%
    02:00 +41°C° 0 mm 4 mps 746 mmHg 12%
    03:00 +40°C° 0 mm 4 mps 746 mmHg 13%
    04:00 +38°C° 0 mm 3 mps 746 mmHg 13%
    05:00 +38°C° 0 mm 3 mps 746 mmHg 14%
    06:00 +38°C° 0 mm 2 mps 746 mmHg 14%
    07:00 +40°C° 0 mm 2 mps 747 mmHg 12%
    08:00 +44°C° 0 mm 3 mps 747 mmHg 11%
    09:00 +47°C° 0 mm 3 mps 747 mmHg 9%
    10:00 +49°C° 0 mm 2 mps 747 mmHg 8%
    11:00 +50°C° 0 mm 2 mps 747 mmHg 7%
    12:00 +51°C° 0 mm 1 mps 747 mmHg 6%
    13:00 +53°C° 0 mm 2 mps 746 mmHg 6%
    14:00 +54°C° 0 mm 3 mps 746 mmHg 6%
    15:00 +55°C° 0 mm 3 mps 745 mmHg 5%
    16:00 +53°C° 0 mm 4 mps 745 mmHg 6%
    17:00 +53°C° 0 mm 5 mps 745 mmHg 6%
    18:00 +52°C° 0 mm 5 mps 745 mmHg 7%
    19:00 +49°C° 0 mm 5 mps 745 mmHg 8%
    20:00 +47°C° 0 mm 4 mps 746 mmHg 9%
    21:00 +43°C° 0 mm 4 mps 746 mmHg 10%
    22:00 +42°C° 0 mm 4 mps 746 mmHg 12%
    23:00 +41°C° 0 mm 4 mps 746 mmHg 14%
    Show more